GFSFLT1_sfc_wetblb_078.txt.gz
Wetbulb
70.33 70.63 71.18 71.69 71.55 69.20 68.02 67.86 68.16 68.52 68.20 67.60 66.30 65.76 66.30 66.61 67.05 66.69 68.08 67.49 70.35 70.69 70.08 69.49 69.71 70.03 69.99 69.73 69.19 68.95 68.74 69.15 69.13
71.95 70.81 71.23 71.09 70.60 68.62 68.26 68.04 68.71 68.43 68.07 67.62 66.49 66.34 66.87 65.65 65.48 65.69 66.18 67.25 69.74 69.09 68.46 68.14 68.06 68.50 68.37 68.02 67.75 67.51 67.42 67.29 67.60
70.72 70.54 71.21 70.61 69.51 68.68 68.24 68.43 68.64 68.19 67.76 67.34 66.13 66.46 66.52 65.79 65.18 65.87 65.98 69.03 68.58 67.59 66.64 66.71 66.55 66.57 66.34 65.67 65.33 65.39 65.33 65.65 65.90
70.75 70.78 70.68 70.27 69.84 68.97 68.06 68.28 68.19 67.93 67.49 67.04 65.98 66.30 65.79 64.47 64.10 66.48 65.16 68.57 67.31 66.60 66.06 66.03 65.63 65.28 64.75 64.02 63.74 63.68 63.91 63.97 64.06
70.18 69.68 69.99 70.09 69.43 69.08 68.47 67.81 67.73 67.57 67.00 66.78 66.18 65.17 64.88 61.79 63.33 64.69 65.14 67.11 66.23 65.66 65.08 64.61 64.11 63.92 63.24 62.65 62.43 62.54 62.35 62.31 62.67
66.48 67.12 68.33 69.06 69.10 68.36 67.62 67.62 67.56 67.25 66.48 66.40 66.11 64.77 61.56 60.92 63.21 63.85 67.15 66.19 65.91 65.10 63.79 63.14 62.88 62.42 62.02 61.73 61.44 61.53 61.31 61.31 61.30
65.26 65.77 67.31 68.55 68.13 67.92 67.71 67.85 67.46 65.52 62.41 62.17 63.61 61.18 61.17 59.27 61.72 63.79 66.77 65.79 65.31 64.04 62.73 61.81 61.83 61.75 61.29 60.91 60.77 60.59 60.28 60.26 60.21
64.04 63.31 64.29 64.30 64.29 64.14 65.70 65.99 64.25 62.09 61.20 61.03 60.13 60.46 58.72 58.21 61.52 64.93 66.37 64.97 63.75 62.85 61.59 61.18 61.07 60.60 60.41 60.36 59.98 59.47 59.51 59.59 59.32
60.05 62.36 62.28 62.61 62.76 62.08 62.26 63.02 62.15 61.57 61.01 60.40 60.11 58.75 57.22 56.48 60.66 63.65 64.91 64.56 63.00 61.98 60.97 60.62 60.37 59.66 59.69 59.18 58.78 58.52 58.47 58.44 58.25
59.01 60.08 61.04 61.31 62.46 60.96 60.97 61.75 61.95 61.19 60.12 58.82 58.53 57.19 55.68 55.47 56.21 61.47 62.93 63.81 62.54 61.26 60.47 60.08 59.81 59.08 58.83 58.13 57.38 56.96 56.81 56.67 56.59
59.33 59.49 60.43 61.00 60.95 60.53 61.43 61.31 60.91 60.82 59.06 57.17 57.01 55.59 54.97 54.94 57.84 60.15 60.03 62.50 62.42 60.48 60.07 59.42 59.06 58.61 58.23 57.49 56.03 55.25 55.04 54.89 54.73
59.50 59.21 59.72 60.71 61.05 61.10 61.20 61.16 60.59 59.55 60.02 56.29 55.36 54.76 53.69 54.23 55.06 59.08 56.93 58.68 60.64 60.80 59.48 58.82 58.09 57.94 57.58 57.02 55.97 54.51 53.44 53.55 53.18
59.57 59.21 59.25 60.38 60.29 60.31 59.90 59.94 58.92 57.46 56.62 54.36 52.84 52.55 52.95 53.41 54.03 54.92 56.48 54.46 54.22 58.40 59.65 58.16 57.28 57.14 56.14 56.07 54.89 53.90 52.54 51.66 51.41
60.57 59.14 59.01 59.65 59.35 59.28 59.65 59.31 58.54 55.97 53.93 53.83 51.92 50.98 51.59 52.28 53.64 52.83 52.48 53.32 51.61 51.12 58.03 57.65 56.43 55.14 55.16 54.73 53.94 53.08 51.66 50.99 50.88
61.34 59.53 59.14 59.04 58.53 58.70 58.82 58.21 58.04 56.38 54.68 55.22 52.62 50.18 50.16 50.84 50.53 50.65 52.17 50.81 50.46 49.65 48.94 48.75 48.52 54.08 53.18 52.98 52.61 51.47 50.80 50.04 49.93
61.66 60.43 59.50 59.16 58.49 58.49 58.72 58.22 57.43 55.95 54.84 52.20 49.03 49.21 49.61 48.55 48.63 49.62 49.53 49.59 49.33 47.66 46.41 45.41 44.37 46.43 51.35 51.12 50.27 49.81 48.88 49.49 50.16
62.97 61.52 60.71 59.84 59.19 58.84 59.06 57.78 56.51 55.80 55.82 51.26 48.08 45.68 47.16 47.73 48.02 47.90 48.98 47.85 47.89 47.29 46.82 45.59 43.39 42.40 42.73 42.75 48.47 48.21 49.82 49.10 48.82
63.59 62.28 61.87 61.00 60.49 59.80 59.55 58.98 57.20 55.34 54.28 52.82 51.20 48.33 47.32 44.62 46.11 45.96 47.26 46.90 45.60 45.43 45.28 44.91 43.61 42.24 41.56 45.79 46.19 47.88 46.45 46.66 47.56
64.30 63.21 62.42 61.71 61.22 59.87 60.30 60.51 59.03 56.24 54.33 51.90 54.39 51.99 48.62 45.01 41.05 43.63 44.37 45.74 45.35 44.43 43.50 42.69 42.12 41.63 41.95 44.44 44.87 46.18 44.54 44.95 46.70
64.39 64.68 64.27 62.45 62.43 61.64 60.29 59.55 59.55 58.51 55.47 53.86 50.45 51.19 46.74 45.10 42.82 38.46 39.81 42.54 43.30 43.42 42.45 42.00 41.50 41.24 40.61 39.53 43.71 45.26 43.84 44.37 46.02

GFSFLT1_sfc_wetblb_081.txt.gz
Wetbulb
70.85 70.28 71.27 71.43 70.17 68.92 68.12 68.66 68.57 68.14 67.63 67.33 67.26 67.44 68.35 68.10 66.12 67.35 68.27 68.11 70.64 70.56 69.83 70.30 70.19 70.02 69.66 69.42 69.10 68.90 69.06 69.37 69.65
70.90 70.71 71.66 71.12 69.95 68.69 68.29 68.79 68.61 68.20 67.61 67.27 67.15 66.99 67.14 65.59 65.29 66.30 65.64 66.32 68.75 68.51 68.51 68.54 68.64 68.29 67.91 67.57 67.23 66.86 67.10 67.24 67.95
70.95 70.76 71.39 70.51 69.20 68.78 68.75 68.83 68.55 68.07 67.39 66.93 66.48 66.70 66.30 65.38 65.00 65.14 65.43 68.25 67.38 67.17 66.85 66.31 66.20 65.99 65.75 65.50 65.28 65.41 65.50 65.63 65.59
70.58 71.24 71.16 69.96 69.07 69.03 68.92 68.61 68.33 67.87 67.25 66.33 66.24 66.14 65.81 63.75 65.07 65.61 64.79 67.91 67.01 66.55 66.16 65.61 65.20 64.70 64.21 64.02 63.98 63.87 64.05 64.13 64.06
70.83 70.06 70.32 70.56 69.73 69.10 69.18 68.36 68.10 67.63 67.09 66.25 66.51 64.96 64.04 62.43 63.76 63.85 64.73 66.98 66.38 65.68 64.89 64.44 64.18 63.55 62.99 62.75 62.81 62.44 62.46 62.47 62.61
67.30 67.68 68.77 69.57 69.64 68.83 68.30 67.93 67.92 67.52 66.52 66.38 66.01 64.97 60.89 61.57 62.82 63.12 67.20 66.32 66.01 64.81 63.96 63.46 63.10 62.69 62.15 61.89 61.89 61.75 61.79 61.66 61.65
65.73 66.05 67.48 68.96 68.61 68.23 68.19 67.98 67.80 65.52 62.48 62.10 63.85 60.82 59.89 60.61 62.14 63.18 66.92 66.18 65.44 63.93 62.77 62.37 62.30 61.86 61.52 61.34 61.06 60.94 60.92 60.63 60.37
63.79 64.25 65.35 64.80 64.51 64.65 65.99 66.02 64.25 61.63 60.27 60.14 59.56 59.44 58.49 59.67 62.15 64.55 66.44 65.43 64.72 63.23 62.34 62.01 61.50 60.97 60.95 60.49 60.03 60.00 60.03 59.78 59.50
62.60 62.52 62.53 62.84 62.63 61.91 62.61 62.74 62.13 61.25 60.57 59.79 58.91 58.55 55.45 59.63 61.58 63.45 65.00 64.98 63.75 62.62 61.99 61.52 60.98 60.62 60.15 59.72 59.29 59.02 58.93 58.84 58.43
61.54 61.52 61.82 61.57 61.67 60.98 61.01 61.70 61.12 60.25 59.84 59.20 58.68 56.36 53.86 58.48 61.30 60.92 63.08 64.29 63.34 62.10 61.67 61.38 60.71 60.27 59.82 59.09 58.40 57.87 57.52 57.34 57.02
58.42 59.42 60.60 60.73 61.30 60.56 60.90 60.35 60.31 59.57 58.94 57.08 55.92 54.28 53.75 53.89 60.31 60.04 60.67 63.36 63.37 61.80 61.63 61.23 60.76 60.12 59.55 58.24 57.24 56.77 56.27 55.68 55.34
58.20 57.77 58.51 59.81 60.72 59.38 59.78 59.32 59.68 59.14 58.81 55.54 54.53 53.50 52.75 53.34 59.28 58.87 57.91 60.04 61.69 62.16 61.20 60.72 60.20 59.95 59.72 58.79 56.84 55.68 54.84 54.37 53.99
57.98 57.64 58.05 59.53 59.43 58.89 58.76 58.78 58.01 57.48 57.23 54.49 52.56 52.30 51.84 52.03 56.74 57.43 56.35 55.98 56.47 60.27 61.60 60.47 59.70 59.40 59.33 58.55 57.29 55.28 54.29 53.06 52.53
58.84 57.93 57.99 58.83 58.67 58.55 58.52 58.09 57.71 55.45 54.17 53.49 51.42 50.13 50.46 51.40 53.06 55.24 54.97 53.76 53.00 52.73 59.15 59.91 59.35 58.98 57.97 58.25 57.28 55.92 53.58 52.34 51.79
60.04 58.22 57.88 57.93 57.54 57.60 57.58 57.35 57.14 55.67 53.85 54.23 52.13 49.06 49.74 50.15 49.88 50.53 54.32 53.58 51.63 50.80 52.18 52.87 52.14 57.08 56.93 56.85 56.57 55.59 54.00 52.86 51.66
60.51 58.50 57.58 57.32 57.16 57.42 57.52 57.10 56.79 54.82 53.56 50.83 48.29 48.02 48.13 48.25 49.09 49.04 49.28 49.91 50.76 48.95 48.65 46.92 46.01 49.89 56.21 54.98 54.90 54.52 53.26 51.99 51.32
61.36 59.92 58.37 57.41 56.77 56.75 57.10 56.78 55.53 55.41 53.45 50.09 46.65 44.82 46.73 47.49 47.47 47.42 48.60 48.04 47.95 47.85 46.97 45.07 44.13 44.28 45.59 47.18 53.35 52.31 52.03 51.96 51.75
62.37 60.32 60.36 58.68 58.36 57.79 57.28 57.20 56.51 54.86 54.01 51.71 49.17 45.80 45.07 44.68 45.41 45.89 46.45 46.92 45.84 45.46 46.71 45.42 44.39 43.05 42.80 47.22 48.76 50.15 50.54 51.04 50.50
63.30 61.62 60.14 60.25 59.41 58.36 58.45 58.91 57.36 55.49 55.14 52.56 52.95 51.40 49.62 45.09 42.97 43.03 43.70 45.05 45.21 44.67 43.70 44.35 42.68 42.97 43.10 45.43 46.86 49.54 48.09 47.78 48.65
63.56 62.46 61.84 60.32 60.52 60.35 59.62 59.22 58.85 57.81 56.65 55.41 51.17 50.81 47.57 44.62 42.14 40.48 41.00 44.32 44.58 45.75 44.36 43.18 42.22 42.49 42.91 43.27 45.44 47.73 46.38 46.95 47.45

GFSFLT1_sfc_wetblb_084.txt.gz
Wetbulb
70.92 71.15 71.63 70.39 69.72 68.20 68.59 67.70 67.69 67.84 67.94 68.02 68.67 69.61 68.65 67.84 67.47 66.38 68.40 68.39 70.63 70.69 70.62 70.38 70.12 69.80 69.36 69.14 68.70 68.74 69.19 69.60 69.76
70.52 71.18 71.15 70.19 69.38 68.34 68.71 68.48 68.27 68.04 67.76 67.71 67.60 67.84 67.38 65.09 64.91 64.79 64.69 65.50 68.81 68.93 69.14 69.21 68.75 67.95 67.30 66.98 66.57 66.62 66.67 66.77 67.82
70.47 71.20 70.77 69.93 68.90 68.67 68.78 68.57 68.14 67.84 67.46 67.12 66.92 66.88 66.91 65.37 64.45 64.40 64.18 67.63 67.73 67.60 66.56 66.12 66.10 65.85 65.75 65.58 65.43 65.40 65.59 65.43 65.19
70.65 71.27 70.82 69.96 69.15 69.24 68.75 68.56 68.11 67.72 67.36 66.69 66.74 66.66 66.45 64.15 64.30 64.75 63.69 67.71 66.87 66.69 65.93 65.38 64.97 64.64 64.36 64.18 64.11 64.16 64.15 64.12 64.05
70.89 70.16 69.96 70.00 69.95 69.79 69.34 68.40 68.11 67.45 67.13 66.75 66.14 65.17 64.98 62.76 63.07 63.34 64.39 66.90 66.30 65.68 64.93 64.73 63.99 63.45 63.40 62.96 62.72 62.78 62.77 62.98 62.92
68.12 67.85 68.92 69.50 69.40 69.28 68.76 68.17 68.06 67.60 66.54 66.30 65.26 63.10 61.04 61.81 62.30 62.60 67.39 66.35 65.88 64.84 64.21 63.71 63.23 62.65 62.50 62.41 62.24 62.15 62.07 62.19 62.18
66.96 66.44 67.82 69.36 68.82 68.68 68.56 68.24 68.01 65.81 62.09 61.52 63.80 59.99 59.69 61.44 61.52 62.72 67.07 66.29 65.33 64.01 63.35 62.76 62.58 62.09 61.87 61.62 61.38 61.41 61.10 60.97 60.98
64.17 64.34 65.42 65.02 64.73 64.81 66.00 65.71 63.61 60.88 59.97 59.66 59.36 58.78 57.53 60.49 61.37 64.13 66.89 66.05 64.96 63.55 62.75 62.44 61.84 61.54 61.48 60.85 60.54 60.63 60.20 59.94 59.85
61.80 63.38 63.08 63.03 62.75 61.88 62.39 62.36 61.58 60.59 59.95 58.78 58.59 57.89 56.66 59.69 60.85 62.99 65.41 65.88 64.61 63.35 62.61 62.12 61.40 61.16 60.81 60.26 60.02 59.81 59.69 59.14 58.92
61.62 61.77 61.86 61.82 61.62 61.01 60.79 61.10 60.61 59.88 59.41 59.32 58.85 57.63 54.55 59.63 60.73 60.93 63.20 64.96 64.29 62.97 62.68 61.96 61.30 60.98 60.41 59.78 59.18 58.96 58.78 58.16 57.74
61.98 61.16 61.26 60.67 60.95 60.61 60.43 59.98 59.95 59.22 59.04 58.51 57.51 55.76 53.24 58.88 59.68 59.77 60.70 63.83 64.26 62.97 62.46 62.46 61.74 61.16 60.43 59.41 58.36 57.71 57.39 56.93 56.36
60.29 60.40 59.92 60.71 60.80 60.47 59.71 59.35 59.47 58.96 58.62 56.23 54.43 52.93 51.64 56.08 59.05 59.07 58.47 60.58 62.42 63.27 62.52 62.08 61.65 61.13 60.84 59.42 58.01 57.08 56.27 55.65 55.22
57.79 58.50 58.85 59.41 59.57 59.71 58.55 58.11 57.57 57.57 57.67 55.67 53.09 51.92 51.33 52.82 58.03 58.15 57.42 57.40 57.78 61.17 62.88 62.17 61.44 60.91 60.82 60.73 58.90 57.18 55.83 54.91 54.24
58.09 57.43 57.59 58.33 58.69 58.27 58.22 57.28 57.29 55.81 55.44 55.37 52.52 50.77 50.34 50.64 56.00 56.64 56.01 55.55 55.58 54.83 59.54 61.22 61.12 61.19 60.44 60.43 59.73 57.76 55.90 54.22 53.18
58.52 57.19 56.99 57.58 57.38 57.18 56.76 56.66 56.65 55.70 54.83 54.92 52.33 49.30 49.22 49.50 49.71 54.11 56.47 54.46 53.85 52.87 52.77 55.55 55.35 59.45 59.74 59.25 59.38 58.32 56.51 54.27 53.11
59.99 58.26 56.88 56.65 57.01 57.22 56.80 56.41 56.26 54.94 52.97 50.64 49.24 48.17 48.11 47.68 48.40 48.85 50.95 53.42 53.02 50.88 50.65 51.62 50.01 52.89 58.77 58.14 58.09 57.62 56.58 54.84 53.22
61.10 59.42 57.77 56.69 55.94 55.68 56.05 56.04 54.79 55.22 52.67 50.06 46.73 46.75 47.83 47.65 47.47 47.22 48.13 48.45 50.81 50.21 49.27 48.63 47.00 47.22 48.51 49.80 57.14 56.28 55.46 54.14 52.85
60.94 59.73 59.45 57.40 56.87 56.36 55.68 55.94 55.68 54.39 53.37 51.00 50.92 45.07 45.13 44.97 45.73 45.74 45.65 46.58 46.31 46.71 47.28 46.60 45.52 45.03 45.39 49.43 51.94 53.62 51.46 51.75 52.51
61.93 60.42 59.06 58.15 57.89 57.02 56.50 56.89 56.53 55.05 54.39 52.66 53.05 50.18 48.70 46.38 45.34 43.56 45.01 44.72 45.04 44.32 44.70 46.56 46.97 45.81 44.34 47.13 47.96 48.67 48.15 49.55 50.02
63.35 62.45 60.41 58.84 58.44 58.03 57.80 58.23 57.61 57.93 58.06 55.57 52.90 52.57 49.78 46.73 45.86 46.57 43.08 45.17 44.57 45.08 46.05 45.85 44.98 44.70 44.29 45.25 47.26 48.68 47.59 47.13 47.53

GFSFLT1_sfc_wetblb_087.txt.gz
Wetbulb
72.18 71.89 70.56 69.68 68.69 67.93 67.57 68.33 68.70 68.57 68.49 69.53 69.97 69.76 69.00 67.78 65.55 65.93 68.34 67.05 70.61 70.65 70.22 70.27 69.89 69.39 69.11 68.75 68.39 68.50 69.58 69.78 69.68
71.17 71.25 70.29 68.94 68.41 68.29 67.89 68.16 68.35 68.25 68.32 68.63 68.45 68.70 67.69 64.89 63.88 63.75 63.86 65.84 68.44 68.38 68.91 69.07 68.60 67.88 66.83 66.46 66.36 66.24 66.34 66.56 67.41
71.03 70.62 69.92 69.00 68.57 68.60 68.36 68.28 68.07 67.85 67.85 67.72 67.36 68.35 67.04 64.72 63.72 63.26 63.15 67.81 67.53 66.88 66.28 65.88 65.96 65.71 65.91 65.64 65.50 65.50 65.48 65.24 65.23
70.93 70.68 70.02 69.26 68.91 68.67 68.64 68.20 67.80 67.66 67.37 66.93 66.92 67.84 66.40 63.37 63.31 63.51 62.87 67.73 66.74 66.29 65.77 65.18 64.69 64.60 64.49 64.39 64.39 64.38 64.28 64.19 64.00
70.98 69.95 69.98 70.01 69.98 69.59 68.59 68.35 67.77 67.47 67.22 66.41 66.90 66.80 65.68 62.36 62.62 62.53 63.82 66.61 66.06 65.36 64.65 64.17 63.61 63.34 63.13 62.84 63.07 63.11 63.27 63.23 63.16
68.17 67.49 68.58 69.48 69.82 69.32 68.34 68.08 67.87 67.40 66.38 66.09 64.91 63.72 61.99 61.20 61.84 62.18 67.32 66.16 65.24 64.57 63.98 63.42 62.74 62.46 62.36 62.20 62.24 62.17 62.48 62.46 62.26
67.03 66.31 67.71 69.09 68.78 68.88 68.61 68.04 67.99 65.27 61.26 61.08 62.81 59.37 60.46 60.95 61.00 62.01 67.22 66.05 64.85 63.78 63.10 62.55 62.18 61.83 61.74 61.36 61.35 61.30 61.24 61.19 61.07
64.95 64.76 65.78 65.27 64.87 64.73 65.69 65.06 62.90 60.45 59.45 59.20 58.71 57.94 59.29 60.15 60.80 62.79 66.99 66.01 64.76 63.32 62.52 62.15 61.59 61.27 61.12 60.75 60.66 60.31 60.09 60.18 60.09
62.41 63.43 63.41 63.35 63.05 62.14 62.15 61.90 60.84 59.84 58.86 57.45 57.44 57.58 57.01 59.54 60.34 61.23 65.60 66.40 64.78 63.44 62.56 62.01 61.22 60.95 60.54 59.86 60.08 59.98 59.38 59.25 58.92
60.81 61.69 61.83 61.80 61.55 60.80 60.61 60.79 60.29 59.25 58.53 58.67 58.34 57.29 55.76 58.22 60.08 60.34 63.14 65.56 65.21 63.58 62.77 62.21 61.45 61.08 60.27 59.65 59.28 59.17 58.79 58.39 57.92
60.85 60.75 61.10 60.82 60.91 60.49 60.12 59.84 59.46 58.70 58.27 58.35 58.16 57.65 54.52 57.37 59.22 59.67 60.40 64.19 65.08 63.80 63.29 62.70 62.04 61.40 60.76 59.71 58.67 58.11 57.75 57.07 56.51
61.36 60.76 60.12 60.52 60.36 60.19 59.23 58.80 58.43 57.82 57.82 57.37 57.03 54.93 52.97 56.41 58.58 58.92 58.57 60.52 62.89 64.18 63.23 63.04 62.61 61.74 61.35 60.29 58.59 57.50 56.62 55.77 55.20
59.59 59.94 59.99 59.84 59.68 59.45 58.49 57.77 57.17 57.04 56.94 56.55 55.47 52.62 51.01 51.98 57.05 57.86 57.65 57.75 58.55 61.58 63.91 63.45 62.57 62.07 61.78 61.38 59.56 57.65 56.34 55.14 54.34
58.83 58.74 59.17 58.57 58.37 58.38 58.26 56.88 56.75 55.93 55.71 56.29 55.59 52.02 50.46 50.27 55.47 56.70 56.59 56.31 56.72 55.95 59.36 61.98 62.38 62.68 61.47 61.72 61.39 59.39 56.54 55.14 53.52
58.03 57.00 56.81 57.43 57.18 56.91 56.36 56.27 55.71 55.70 55.86 56.19 54.67 51.30 49.56 49.34 49.25 54.33 56.66 55.42 55.38 54.72 54.33 54.74 56.88 60.68 61.49 60.92 61.12 60.41 58.00 55.32 53.56
58.23 57.30 56.39 56.17 57.05 57.31 56.86 56.02 55.59 54.22 53.42 51.53 50.32 49.14 49.12 47.74 48.23 48.87 51.91 54.29 54.43 53.34 52.61 52.08 52.95 53.50 60.45 60.45 59.95 59.55 58.99 57.13 54.49
60.14 58.29 57.17 56.21 55.96 56.02 56.09 55.85 54.34 54.94 52.65 51.00 47.62 48.86 50.61 48.14 48.01 47.35 48.19 48.81 52.61 52.12 51.28 50.57 50.57 49.63 50.63 53.25 58.80 58.14 57.79 56.37 54.20
60.37 59.47 59.36 57.35 56.59 56.19 55.43 55.79 55.26 54.23 53.10 50.94 52.91 46.35 46.74 45.59 46.85 45.51 45.48 46.37 46.67 48.47 49.53 49.15 49.31 49.48 48.94 50.96 52.86 54.00 53.38 53.14 54.48
61.14 60.35 59.37 58.55 56.96 55.97 55.84 56.12 55.83 55.16 53.88 52.24 52.79 51.10 50.37 48.96 48.45 46.07 44.37 44.99 46.33 46.69 46.63 47.91 48.29 47.96 46.85 49.19 50.52 51.28 51.32 50.40 51.16
62.74 61.83 59.81 58.32 57.58 57.07 56.40 55.86 55.83 56.83 57.35 55.52 53.80 53.30 49.89 47.80 49.20 51.65 49.86 45.93 45.60 46.09 46.30 46.63 47.20 46.27 46.29 47.06 49.16 50.81 50.33 51.63 52.55

GFSFLT1_sfc_wetblb_093.txt.gz
Wetbulb
70.96 68.96 68.43 69.06 69.44 69.59 69.70 69.75 69.83 70.22 70.57 70.47 69.69 69.71 68.97 68.75 70.12 69.37 69.58 69.92 70.61 70.19 69.25 68.78 68.61 68.19 67.86 67.69 67.94 68.02 68.21 68.11 68.34
70.60 68.97 68.49 68.34 68.99 69.42 69.63 69.45 69.90 70.05 70.10 70.22 70.07 68.60 66.95 68.52 68.09 68.25 68.28 67.55 68.25 68.31 67.89 67.28 66.96 66.64 66.64 66.66 66.76 66.77 66.84 66.61 66.37
70.31 69.10 68.75 68.28 68.84 69.40 69.38 69.19 69.38 69.21 69.84 70.19 69.18 67.50 66.40 66.63 67.12 67.50 67.57 68.32 67.39 67.33 66.72 66.31 66.15 65.98 65.75 65.76 65.70 65.65 65.58 65.41 65.28
70.45 69.77 69.40 68.63 68.80 69.38 69.32 68.78 68.76 68.44 68.47 69.52 68.33 67.00 65.60 66.58 66.34 66.02 66.83 67.77 66.98 66.53 65.71 65.51 65.31 64.97 64.88 64.65 64.68 64.53 64.50 64.46 64.49
70.55 69.51 69.46 69.71 69.65 69.49 69.35 68.63 68.38 67.70 67.55 68.71 67.84 66.37 65.17 66.15 65.98 66.25 66.51 67.01 66.07 65.89 65.04 64.70 64.62 64.24 63.97 63.84 63.93 63.97 63.89 63.80 63.59
69.32 67.71 68.52 69.48 69.63 69.14 68.58 68.35 67.91 66.77 66.86 67.63 66.45 64.96 66.46 66.00 66.00 66.45 66.98 66.17 65.66 65.04 64.47 63.88 63.88 63.66 63.44 63.19 63.22 63.23 63.11 63.02 62.90
68.95 67.19 67.76 69.40 68.89 68.72 68.73 68.18 66.11 64.91 65.31 65.41 63.91 66.45 66.02 66.14 65.90 66.45 67.15 65.68 65.15 64.24 63.61 63.24 63.09 62.98 62.71 62.67 62.53 62.47 62.32 62.31 62.13
69.25 69.16 69.15 69.17 66.22 68.07 67.77 67.52 66.12 64.66 64.66 64.50 64.58 64.23 65.72 66.20 65.93 65.57 66.76 65.49 64.88 63.79 63.08 62.75 62.39 62.31 61.86 61.96 61.66 61.64 61.54 61.44 60.93
68.25 68.39 68.48 68.04 67.65 67.26 67.20 66.68 65.14 64.03 63.49 63.66 63.47 63.65 64.73 65.69 65.51 65.38 64.70 66.09 64.82 63.87 63.05 62.46 61.88 61.81 61.24 61.38 61.12 60.65 60.49 60.19 60.17
67.26 67.83 67.77 67.55 67.08 66.59 66.23 65.92 64.99 63.36 62.86 62.94 62.64 62.54 62.86 63.16 64.74 65.41 62.00 65.39 65.66 64.19 63.46 62.77 61.96 61.73 60.98 60.76 60.46 60.13 59.58 59.25 58.99
66.82 66.88 66.95 66.87 66.72 66.19 65.77 65.29 64.74 63.92 62.80 61.93 62.30 62.67 62.82 62.16 61.72 63.90 64.68 63.79 65.66 65.08 64.02 63.67 62.71 62.09 61.45 60.75 59.91 59.47 58.79 58.07 57.60
66.08 66.14 65.88 66.10 66.00 65.35 64.63 64.05 64.03 63.58 62.58 61.59 61.82 62.51 62.48 62.01 61.48 62.37 64.02 64.18 63.13 65.01 64.59 64.23 63.64 62.72 62.27 61.58 60.17 58.85 58.12 57.10 56.32
64.83 64.68 64.94 65.51 65.13 64.79 64.17 63.72 63.10 62.72 62.15 61.72 61.20 61.80 61.39 60.69 59.94 60.89 62.40 63.42 63.41 63.38 64.70 64.72 64.11 63.72 63.02 62.67 61.85 59.75 58.22 56.91 55.89
64.10 64.12 64.26 64.25 64.20 63.90 63.63 63.00 62.65 61.98 61.18 60.92 61.61 61.80 61.73 60.96 58.25 59.02 61.09 62.55 62.64 62.88 61.77 62.29 63.23 64.18 63.48 63.36 62.97 62.32 59.67 57.92 56.13
63.09 62.99 63.17 63.06 62.77 62.43 61.94 61.97 61.28 61.45 60.85 59.50 60.11 61.36 61.23 60.32 59.21 58.58 58.28 60.46 61.52 62.01 61.74 61.75 61.60 61.19 63.34 63.01 63.01 62.76 62.08 58.78 56.87
63.05 62.65 62.33 62.10 61.80 61.82 61.62 61.09 60.22 59.48 59.57 59.42 60.13 59.83 60.00 59.32 58.81 58.31 57.38 57.35 59.03 60.40 60.85 61.01 60.65 60.49 60.92 62.79 62.60 62.34 62.32 60.86 57.91
63.26 62.80 61.89 61.29 61.05 60.72 60.42 59.80 58.81 59.51 59.02 59.53 56.92 56.97 58.52 58.52 56.88 56.71 55.77 56.14 56.58 57.55 59.02 60.05 60.10 59.77 59.16 59.07 61.66 62.54 61.57 61.83 60.27
64.02 62.82 62.74 61.24 60.72 60.06 59.80 59.52 58.95 58.36 58.12 58.86 59.15 54.00 54.34 54.87 55.91 54.12 54.28 54.11 53.95 55.23 56.20 56.87 57.42 57.63 56.60 55.60 56.71 58.39 60.60 60.64 60.73
63.56 62.78 62.00 61.71 60.56 59.79 59.61 59.48 59.76 59.19 58.24 57.10 56.91 56.10 55.44 52.66 52.36 54.74 52.07 51.15 51.08 50.76 50.55 51.65 54.08 53.63 53.37 53.35 53.77 55.54 58.09 59.08 60.13
62.47 62.50 62.15 61.61 60.95 60.70 59.94 59.34 59.52 59.42 59.36 58.20 56.95 55.67 53.96 53.11 52.69 52.78 56.78 51.50 50.18 47.83 48.11 48.11 51.21 51.42 51.88 52.18 52.41 56.06 56.93 58.57 59.27

GFSFLT1_sfc_wetblb_096.txt.gz
Wetbulb
69.14 68.84 69.19 69.80 70.06 70.09 69.24 70.22 70.96 70.91 70.47 69.99 70.31 69.80 68.92 70.31 69.85 69.48 69.14 69.32 69.61 69.31 68.50 68.18 67.97 67.79 67.70 67.92 68.06 67.98 67.80 67.48 67.19
68.97 68.46 69.04 69.60 70.25 69.29 69.87 70.78 70.49 70.44 70.25 70.46 69.80 68.72 68.25 69.52 68.86 67.72 67.85 68.32 68.29 68.11 67.49 67.04 66.82 66.87 66.94 66.68 66.61 66.55 66.46 66.36 66.04
69.04 68.40 68.79 69.39 69.79 69.65 69.86 70.00 69.96 70.49 70.38 69.54 68.38 67.35 67.40 67.86 67.33 67.26 67.14 68.00 67.26 67.08 66.53 66.21 66.02 65.89 65.74 65.59 65.47 65.40 65.36 65.44 64.89
69.31 68.99 69.15 69.33 69.63 69.53 69.33 69.38 69.10 70.03 70.01 68.86 67.65 66.60 66.18 66.97 66.42 66.17 66.77 67.38 66.68 66.20 65.70 65.28 65.12 65.05 64.85 64.76 64.70 64.70 64.69 64.34 64.35
70.07 69.23 69.27 69.95 69.92 69.68 69.38 68.86 68.29 68.28 69.47 68.22 67.13 65.95 65.87 66.97 66.69 66.55 66.87 66.58 66.36 65.62 64.95 64.81 64.54 64.30 64.14 64.15 64.11 63.97 63.98 63.90 63.97
68.93 67.85 68.59 69.53 69.63 69.15 68.76 68.57 67.19 68.16 68.23 67.67 66.23 65.59 67.71 67.14 66.84 66.65 67.02 66.12 65.74 65.04 64.42 64.23 63.98 63.81 63.53 63.34 63.21 63.14 63.13 63.14 63.09
69.03 67.41 68.11 69.34 69.03 69.00 68.65 67.62 66.26 66.37 67.96 67.44 65.42 68.20 67.70 67.47 66.84 66.53 66.46 65.90 65.39 64.49 63.93 63.47 63.30 62.94 62.76 62.66 62.57 62.50 62.61 62.39 61.97
69.75 69.50 69.08 69.05 66.00 67.61 67.99 66.81 66.99 67.02 67.17 67.06 67.07 67.66 67.99 68.07 67.30 66.04 65.79 65.45 65.12 64.20 63.64 62.88 62.69 62.18 62.08 61.90 61.83 61.79 61.68 61.40 61.32
69.93 69.55 69.66 69.09 68.61 67.61 67.07 66.74 66.63 66.09 66.25 66.48 66.38 66.67 67.55 68.04 67.67 65.84 65.19 65.66 65.17 64.28 63.70 62.73 62.29 61.77 61.46 61.44 61.06 60.79 60.54 60.53 60.42
68.43 69.28 68.70 68.95 68.81 68.23 67.42 66.77 65.04 65.05 65.13 65.38 65.23 65.38 66.03 66.60 67.26 67.51 63.28 65.28 65.46 64.63 64.06 63.27 62.51 62.01 61.31 61.00 60.65 60.01 59.82 59.62 59.31
68.19 67.98 68.50 68.99 69.01 68.51 67.84 66.89 66.05 64.80 63.68 63.63 64.47 64.66 65.03 65.28 65.23 66.06 66.09 64.11 65.68 65.25 64.60 64.27 63.35 62.79 61.89 61.15 60.49 59.76 59.05 58.46 58.03
67.99 67.54 67.63 68.01 68.28 67.99 67.55 66.75 66.34 65.41 64.27 62.73 63.24 64.43 65.02 65.31 65.17 65.31 65.89 65.52 63.28 65.36 65.23 64.77 64.38 63.58 63.19 62.16 60.77 59.70 58.77 57.66 56.70
67.66 67.05 66.96 67.55 67.51 67.18 66.46 65.89 65.13 64.79 64.35 63.63 62.73 62.71 64.41 65.11 64.93 64.76 65.02 65.31 65.20 64.08 65.25 65.20 64.65 64.38 63.88 63.65 62.60 60.71 59.37 58.08 56.91
67.31 66.58 66.47 66.80 66.61 66.31 65.78 65.32 64.71 63.75 63.55 62.54 62.87 62.43 63.28 64.23 64.33 64.34 64.51 64.73 64.75 65.00 63.64 63.32 63.87 64.50 64.36 64.23 63.99 62.96 60.63 58.82 57.56
67.21 66.68 66.01 66.16 65.76 65.74 65.54 64.54 64.63 63.73 63.46 61.54 61.90 63.94 64.59 64.92 64.82 64.54 64.10 64.14 64.21 64.46 64.28 63.91 62.79 61.96 63.55 64.30 64.19 63.98 63.06 60.14 58.45
67.30 67.26 66.22 66.00 65.14 65.27 65.24 64.52 63.24 62.78 63.58 62.36 62.43 63.00 63.75 63.90 64.14 64.42 64.07 63.38 62.96 63.44 63.54 63.62 63.49 62.85 62.14 63.24 63.47 63.61 63.52 62.53 59.88
67.33 67.10 66.68 66.04 65.30 65.52 64.92 63.87 62.36 62.51 63.24 61.15 61.23 58.60 61.32 62.51 62.82 63.42 62.50 62.78 62.81 61.99 62.06 62.49 62.62 62.64 61.90 61.36 62.34 62.90 62.85 62.92 61.97
67.91 67.24 66.91 66.49 65.82 65.20 64.82 63.84 62.90 61.64 62.35 62.36 60.80 58.07 57.61 60.20 61.29 60.56 61.08 60.65 60.78 60.59 60.03 60.13 60.31 60.58 60.53 60.17 58.24 58.74 60.62 61.97 62.15
67.40 66.89 66.78 66.81 65.96 65.64 65.31 64.16 63.69 62.67 61.23 61.22 61.35 62.70 60.71 58.06 57.08 58.92 56.90 56.32 56.06 57.70 57.44 55.81 54.90 55.11 56.42 56.55 55.70 56.25 57.99 59.85 61.42
64.99 65.93 65.90 66.16 65.87 65.16 64.96 63.43 63.01 62.65 61.80 61.83 60.99 60.84 60.78 59.49 56.92 55.59 58.64 56.99 55.70 54.57 53.55 53.13 52.83 54.16 54.03 53.78 55.63 54.63 56.28 58.63 60.18

GFSFLT1_sfc_wetblb_099.txt.gz
Wetbulb
69.32 69.06 69.84 70.26 70.43 70.47 70.34 70.29 70.38 70.19 69.94 70.19 69.75 69.87 70.10 70.40 67.99 68.02 68.17 67.89 68.58 68.54 68.19 67.88 67.79 67.75 67.69 67.65 67.67 67.51 67.29 66.88 66.63
68.96 68.97 70.02 70.35 69.36 70.22 70.80 70.92 70.73 70.57 70.58 70.31 69.67 68.55 68.98 67.21 66.46 66.53 66.56 66.54 67.90 67.76 67.36 67.08 66.94 66.75 66.70 66.61 66.43 66.36 66.34 65.80 65.64
68.58 69.02 69.73 70.26 69.58 70.43 70.29 70.38 70.68 70.61 69.98 69.25 68.17 67.80 67.62 66.13 66.13 66.33 66.10 67.37 67.05 67.02 66.46 66.15 66.12 66.03 65.88 65.80 65.79 65.81 65.37 65.30 65.28
68.55 69.49 69.99 69.74 69.79 69.91 69.73 70.16 70.59 70.22 69.31 68.27 67.27 66.81 66.95 65.73 65.94 65.81 65.38 67.09 66.29 66.10 65.69 65.46 65.43 65.41 65.28 65.27 65.09 64.94 64.93 64.90 64.56
69.42 69.07 69.68 70.29 69.86 69.62 69.50 68.88 69.84 69.81 68.57 67.58 66.66 66.32 66.53 66.16 66.02 65.63 65.57 66.60 66.08 65.62 65.18 64.90 64.92 64.77 64.71 64.40 64.46 64.27 64.26 64.07 64.03
67.22 67.19 68.67 69.64 69.79 69.33 68.92 68.06 68.43 69.22 68.03 67.22 66.53 65.80 66.94 66.42 66.22 65.51 67.10 66.03 65.64 65.03 64.63 64.39 64.35 64.04 63.91 63.75 63.59 63.49 63.58 63.23 63.25
68.32 66.77 68.21 69.38 69.05 69.05 68.74 67.11 67.53 67.45 67.28 66.54 65.60 67.15 67.06 66.48 66.18 65.47 67.18 65.98 65.41 64.53 63.96 63.79 63.50 63.44 63.28 63.10 63.00 63.02 62.75 62.51 62.37
68.62 68.06 67.29 67.52 66.04 67.22 67.32 66.20 66.21 67.22 67.11 66.88 66.78 66.98 66.81 66.61 65.96 65.65 66.96 65.98 65.34 64.46 63.58 63.23 62.83 62.77 62.72 62.47 62.47 62.36 61.99 61.89 61.59
68.53 67.93 67.95 67.05 66.12 66.49 67.05 65.86 66.28 66.40 66.52 66.43 66.02 65.89 66.28 66.69 66.35 64.69 66.38 66.04 65.28 64.50 63.84 62.93 62.64 62.02 62.14 61.91 61.51 61.29 61.21 60.97 60.66
69.31 68.74 68.49 68.10 67.71 67.22 66.24 65.69 65.32 65.17 65.08 65.38 65.23 65.12 65.46 66.02 66.07 66.11 64.26 66.11 65.89 64.80 64.27 63.22 62.85 61.96 61.66 61.45 60.91 60.52 60.36 59.98 59.65
67.89 68.60 68.29 68.26 68.22 67.89 67.31 66.30 65.35 63.86 63.80 63.94 64.33 64.44 64.88 65.01 65.23 65.45 64.13 64.85 66.30 65.58 65.02 64.44 63.50 62.89 62.02 61.29 60.79 59.91 59.46 58.84 58.42
67.96 67.39 67.84 68.23 68.30 67.82 67.29 66.62 65.99 64.83 63.73 62.47 62.79 63.68 64.18 64.77 64.76 65.32 65.61 64.23 63.94 65.91 65.51 65.27 64.72 63.93 63.34 62.15 61.07 60.20 59.18 58.16 57.25
67.56 66.89 66.84 67.53 67.50 67.09 66.40 65.72 64.74 64.42 64.17 63.37 62.51 62.34 63.85 64.21 64.39 65.02 65.05 65.71 65.19 64.09 65.87 66.27 65.44 64.87 64.41 63.92 63.34 61.59 60.21 58.81 57.62
66.88 66.39 66.42 66.73 66.41 65.89 65.61 64.93 64.53 64.07 63.74 63.36 63.15 62.83 62.57 63.87 63.81 64.31 64.75 65.23 65.32 65.36 63.78 63.97 64.48 65.23 65.22 64.77 64.71 63.64 61.57 59.92 58.67
67.04 66.31 65.68 66.01 65.66 65.64 65.47 64.34 64.69 63.57 63.18 61.84 61.09 63.10 63.71 64.16 64.74 64.61 64.55 64.83 64.94 64.98 64.98 63.19 62.49 62.57 64.18 65.10 64.93 64.86 64.03 61.47 60.02
67.30 67.47 66.03 65.90 65.14 65.43 65.62 64.74 63.57 63.04 63.77 62.24 62.19 62.74 63.65 63.73 64.00 64.60 64.46 64.39 64.04 64.24 64.19 64.02 63.88 62.49 62.91 63.98 64.54 64.62 64.54 63.98 61.58
67.37 67.25 67.10 66.01 65.48 65.25 65.29 64.89 63.35 63.05 63.52 60.99 61.65 58.90 61.36 62.81 63.41 64.13 63.68 63.61 63.89 63.13 63.26 63.17 63.17 63.44 62.64 61.62 62.78 63.62 64.00 64.15 63.76
68.07 67.69 67.46 67.18 66.52 65.50 65.82 65.07 63.61 61.69 62.83 62.77 61.32 58.65 56.92 60.41 62.04 62.25 62.64 62.15 62.49 62.58 62.12 61.38 61.53 61.39 61.28 59.85 58.97 59.28 61.25 62.98 63.64
68.20 67.94 67.22 67.34 66.74 65.79 66.26 65.66 64.44 63.54 62.17 62.78 62.03 62.39 61.86 58.40 58.08 60.40 60.43 60.18 59.07 59.88 58.49 57.36 57.08 56.54 56.65 56.51 55.79 56.44 57.58 59.78 61.93
66.42 66.59 66.62 66.54 66.77 66.16 65.88 66.12 64.79 64.49 62.99 62.56 61.88 60.97 60.84 60.79 58.14 56.63 57.35 56.07 56.16 54.75 54.34 54.16 54.07 54.42 54.51 54.86 55.24 54.41 55.78 58.55 60.39

GFSFLT1_sfc_wetblb_102.txt.gz
Wetbulb
70.13 70.28 70.22 70.52 70.64 70.28 70.14 69.52 69.13 69.53 70.22 70.47 70.51 69.86 70.43 67.54 64.65 64.52 66.32 64.52 68.24 68.36 68.02 67.72 67.67 67.52 67.47 67.30 67.23 66.98 66.63 66.38 66.38
69.55 69.52 70.04 70.60 70.65 71.51 70.85 70.86 70.77 70.54 70.42 70.00 69.42 69.22 67.97 63.71 63.52 63.35 63.23 63.99 67.74 67.62 67.22 66.93 66.83 66.72 66.62 66.63 66.42 66.10 66.15 66.01 65.83
69.05 69.70 68.95 70.02 70.93 70.76 70.75 71.07 70.76 70.37 69.78 68.87 68.39 67.74 67.04 64.28 63.43 63.10 63.36 67.07 67.03 66.81 66.62 66.30 66.27 66.26 66.23 66.04 65.74 65.73 65.60 65.43 65.29
69.41 70.13 69.66 70.56 70.36 70.34 71.23 70.94 70.33 69.74 68.76 67.58 67.22 66.66 66.48 62.50 62.62 64.22 63.10 66.95 66.50 66.22 65.92 65.81 65.88 65.87 65.63 65.48 65.30 65.28 64.97 64.95 64.71
69.86 69.13 68.68 70.32 70.08 70.03 70.43 70.70 70.01 68.97 67.83 67.18 66.48 65.79 65.84 62.07 62.86 62.99 64.30 66.28 65.98 65.67 65.47 65.35 65.25 65.23 64.91 64.78 64.59 64.54 64.37 64.44 64.21
66.70 67.14 68.52 69.54 69.86 69.69 68.69 69.49 69.71 68.33 67.02 66.97 66.31 65.58 62.85 62.36 62.95 63.06 67.02 65.90 65.67 65.37 64.84 64.73 64.59 64.51 64.17 63.99 64.01 64.01 63.69 63.64 63.38
66.35 66.28 67.68 69.08 68.94 69.04 68.11 68.21 68.90 66.70 64.18 62.99 64.79 63.01 62.24 62.38 62.62 63.23 67.02 66.09 65.74 64.94 64.49 64.03 63.94 63.75 63.58 63.50 63.48 63.12 63.01 62.84 62.59
65.94 65.48 65.64 65.32 65.22 65.98 65.84 64.10 64.09 64.23 63.23 62.79 62.30 62.40 62.36 61.74 62.14 64.67 66.77 66.18 65.63 64.76 64.17 63.79 63.58 63.37 63.03 63.17 63.01 62.49 62.41 62.18 61.91
66.35 64.66 63.29 63.23 63.33 63.27 63.21 62.43 62.39 62.64 62.49 62.16 61.37 61.28 62.10 62.00 62.31 64.00 65.43 66.58 65.63 65.09 64.17 63.74 62.98 62.86 62.65 62.35 61.97 61.66 61.59 61.22 61.07
65.78 64.70 64.84 62.97 61.94 62.56 62.42 61.76 61.47 61.22 61.00 61.04 61.33 61.36 61.22 62.11 62.27 62.23 64.03 65.89 66.16 65.25 64.64 63.85 63.28 62.56 62.39 61.84 61.24 60.87 60.67 60.17 60.11
65.91 64.86 64.26 63.84 63.48 63.30 62.53 61.55 60.07 59.51 59.17 59.47 60.26 60.26 60.60 60.95 61.18 61.19 62.28 65.12 66.23 65.72 65.35 64.66 64.07 63.14 62.57 61.83 60.97 60.29 59.77 59.11 58.62
64.04 64.93 64.30 64.42 64.09 63.71 63.14 62.23 61.64 60.07 59.39 57.43 58.03 59.45 59.22 60.38 60.60 60.88 61.15 62.91 64.19 66.15 65.86 65.62 64.90 64.33 63.60 62.53 61.43 60.43 59.45 58.57 57.72
63.95 63.18 63.64 64.24 63.95 63.24 62.50 61.67 60.76 60.09 59.55 58.68 57.86 57.15 58.61 59.28 59.92 60.65 60.92 61.55 62.53 64.21 66.32 66.59 65.94 65.16 64.77 64.32 63.77 62.38 61.09 59.62 58.27
63.74 62.91 63.03 63.42 62.81 62.20 62.13 61.00 60.27 59.22 58.88 59.22 57.95 57.19 56.88 58.54 60.89 59.35 60.10 60.81 61.44 61.44 63.46 64.21 64.68 65.74 65.67 65.22 65.34 64.30 62.37 60.72 59.41
63.07 62.45 62.09 62.12 61.78 61.24 61.08 59.98 60.11 59.12 58.79 59.93 57.79 57.29 57.83 57.82 58.57 59.71 61.37 60.71 61.12 60.99 61.19 61.13 61.28 63.07 65.05 65.67 65.43 65.52 64.62 62.65 61.29
63.58 63.46 61.67 61.94 61.53 61.79 61.81 60.98 59.62 59.04 59.34 57.90 57.19 57.46 58.95 59.75 59.98 60.48 60.19 60.15 60.57 60.64 60.53 60.11 59.68 60.35 63.30 64.71 65.39 65.29 65.21 64.81 62.74
64.74 64.50 63.70 62.21 61.93 61.70 61.89 61.12 59.45 59.13 59.44 56.87 56.45 54.56 56.64 58.37 59.44 59.61 59.96 59.44 59.50 59.50 59.98 59.48 59.68 58.89 59.03 59.69 63.50 64.40 64.68 64.85 64.41
65.44 64.75 64.69 63.67 62.77 62.07 62.15 61.64 60.54 58.49 59.18 59.21 57.31 53.50 52.82 55.71 58.19 58.52 59.10 58.34 57.95 57.75 57.69 57.28 56.55 55.79 55.84 57.92 59.41 60.64 61.25 63.13 64.51
66.40 65.61 65.11 64.61 64.29 63.19 63.05 63.23 61.33 60.52 58.95 58.96 59.90 58.21 57.51 54.19 53.47 56.47 56.93 55.11 54.70 54.71 53.00 51.75 51.83 51.76 52.88 54.54 55.52 56.84 57.40 59.45 62.00
64.52 65.08 64.86 64.49 64.44 64.03 63.43 62.90 62.46 61.53 60.51 59.77 58.64 58.66 58.88 58.73 55.79 53.00 53.71 53.26 52.56 51.02 49.89 49.95 49.22 49.67 50.31 50.16 51.92 53.49 54.99 57.92 60.08

GFSFLT1_sfc_wetblb_108.txt.gz
Wetbulb
70.58 69.78 69.92 70.67 70.58 70.80 69.21 71.08 71.36 70.78 71.30 71.81 69.56 68.52 67.20 64.96 62.10 62.36 64.90 63.54 68.00 68.11 67.79 67.48 67.36 67.08 66.97 66.96 66.68 66.69 66.38 66.29 66.13
69.65 69.15 69.67 69.49 69.75 69.39 70.52 71.23 70.73 70.26 70.81 69.98 68.59 67.19 65.60 61.68 61.01 61.34 61.94 63.67 67.86 67.90 67.56 67.22 67.06 66.79 66.73 66.50 66.41 66.12 66.04 66.12 65.91
69.36 69.72 70.80 70.47 69.28 69.84 71.14 71.03 70.13 69.88 70.20 68.74 67.47 66.43 65.25 62.43 61.41 61.82 62.43 67.10 67.40 67.36 67.19 66.88 66.64 66.44 66.43 66.18 65.99 65.88 66.00 65.55 65.57
69.84 71.31 71.61 71.74 71.33 71.26 71.27 70.49 69.53 69.41 68.82 68.22 67.11 66.21 64.77 60.77 61.15 62.48 62.42 67.46 67.12 66.91 66.58 66.39 66.32 66.17 65.98 65.66 65.59 65.48 65.30 65.28 65.10
70.57 70.11 70.68 71.41 71.56 71.16 70.89 69.97 68.68 68.42 68.40 67.68 66.48 65.39 64.07 60.58 61.40 61.86 63.57 66.59 66.60 66.41 66.12 65.83 65.65 65.54 65.24 65.12 65.03 64.78 64.75 64.71 64.61
67.45 68.07 68.95 70.35 70.90 70.71 70.03 69.06 68.06 66.81 66.04 66.80 65.82 63.43 60.59 60.61 61.55 62.04 66.75 66.15 66.31 65.81 65.41 65.06 65.03 64.97 64.74 64.41 64.35 64.14 64.08 63.95 64.00
65.63 66.54 67.80 69.24 69.66 69.87 69.58 68.29 67.18 64.14 61.20 61.75 63.58 60.38 60.17 60.86 61.37 62.54 66.76 66.02 66.01 65.43 64.83 64.65 64.41 64.39 64.18 63.76 63.76 63.39 63.29 63.16 63.09
63.71 64.51 64.68 64.78 64.33 65.40 66.90 66.07 63.28 60.86 60.33 60.42 60.64 59.91 59.34 60.46 61.70 64.20 66.79 66.17 66.05 65.25 64.71 64.32 64.19 64.04 63.97 63.60 63.44 63.02 62.81 62.55 62.30
63.03 63.47 63.18 63.34 62.92 61.72 61.31 61.85 62.34 62.08 61.66 60.24 59.50 59.59 59.66 59.97 61.45 63.26 65.51 66.48 65.89 65.51 64.74 64.29 63.81 63.70 63.34 63.02 62.81 62.30 62.00 61.74 61.49
62.64 62.48 62.68 62.26 62.14 61.29 60.37 60.04 60.40 60.65 60.30 60.89 59.13 59.46 59.44 60.10 61.26 61.42 63.66 65.99 66.27 65.55 65.13 64.45 64.12 63.66 63.10 62.51 62.17 61.62 61.33 61.02 60.59
62.41 61.56 61.24 60.75 61.30 61.26 60.85 59.68 59.41 59.03 58.08 57.68 58.58 58.63 59.56 59.83 60.23 60.85 61.92 64.99 66.25 65.96 65.73 65.26 64.61 64.20 63.50 62.62 61.88 61.25 60.57 60.14 59.52
62.24 61.70 61.17 60.67 60.15 61.35 60.29 60.18 58.61 57.49 56.68 56.09 57.19 57.83 57.84 59.15 59.64 60.06 60.67 62.79 63.98 66.11 66.24 65.81 65.32 64.60 64.21 63.38 61.98 61.17 60.35 59.45 58.66
63.30 62.73 62.26 62.04 60.43 60.48 59.93 58.89 57.44 56.50 55.84 55.07 55.22 55.62 56.39 56.91 58.12 59.56 59.62 60.72 62.16 64.01 66.42 66.81 65.97 65.35 65.01 64.19 63.50 62.58 61.46 60.22 59.10
63.79 63.83 63.38 62.92 61.63 60.40 60.36 59.02 58.54 57.49 56.99 56.71 56.36 55.76 54.43 56.28 58.01 57.56 58.85 59.26 60.47 61.01 63.24 64.38 65.30 65.95 65.80 65.66 65.36 64.97 63.59 61.66 60.42
62.87 62.28 62.55 62.00 61.16 60.14 59.61 59.00 58.19 57.93 57.47 58.33 57.31 55.48 55.35 54.71 55.13 56.57 58.06 58.70 59.93 59.92 60.28 61.09 61.89 63.61 66.19 66.08 66.13 66.20 65.46 63.87 62.47
62.22 61.34 61.21 60.95 60.67 59.96 59.70 58.63 58.02 57.24 56.92 55.94 55.84 56.39 55.87 56.12 56.33 56.04 57.12 57.75 58.53 59.34 59.52 59.20 59.99 60.97 63.81 65.72 66.13 65.98 66.12 65.43 64.50
62.34 61.56 60.56 60.53 60.12 59.75 59.39 59.25 57.83 58.15 57.99 56.10 54.87 53.05 55.01 56.38 56.73 56.97 57.31 57.80 58.30 58.18 58.98 59.19 59.17 58.97 58.32 59.14 62.96 65.23 65.57 65.71 65.42
63.38 62.48 60.42 59.94 60.32 60.25 60.19 59.98 58.98 57.42 57.69 57.77 55.95 51.41 50.72 53.48 56.18 56.33 56.92 57.45 56.79 56.95 57.70 57.70 57.95 57.92 56.64 57.99 58.36 59.91 61.94 63.62 64.41
64.95 64.51 63.98 62.01 61.37 61.16 61.12 61.29 60.29 58.91 57.16 57.65 58.36 57.09 56.22 53.30 53.51 55.25 53.73 54.53 55.23 54.11 53.09 53.46 52.26 52.77 52.91 54.36 54.75 56.00 56.84 59.59 62.15
64.78 64.76 64.40 63.82 63.69 62.71 62.38 62.14 61.15 60.70 59.48 58.46 57.23 56.77 56.38 55.95 54.51 52.95 53.46 51.14 49.59 50.27 49.88 49.02 48.87 50.48 50.54 48.76 50.46 53.01 54.65 57.17 59.19

GFSFLT1_sfc_wetblb_111.txt.gz
Wetbulb
71.75 71.34 71.20 71.45 71.52 70.91 71.63 71.20 70.77 71.91 71.40 70.18 69.30 68.10 66.89 64.49 61.71 62.06 64.67 63.25 67.88 67.95 67.70 67.39 67.17 67.20 67.00 66.97 66.66 66.56 66.47 66.50 66.42
70.79 70.42 70.68 70.84 70.40 71.13 71.26 70.17 70.91 71.96 70.42 68.93 67.95 66.94 65.16 61.10 60.69 61.12 61.92 63.51 67.83 67.83 67.50 67.10 67.08 66.79 66.75 66.46 66.41 66.49 66.18 66.20 66.10
69.36 69.52 69.99 70.05 70.07 71.26 70.47 69.60 70.40 70.43 69.15 67.96 66.92 66.00 64.72 61.93 61.00 61.60 62.57 67.27 67.46 67.43 66.96 66.67 66.74 66.46 66.36 66.20 66.25 65.92 65.91 65.76 65.65
68.72 69.33 69.88 70.07 71.33 71.63 70.88 69.80 70.08 69.50 68.31 66.81 66.24 65.49 64.08 60.31 60.91 62.31 62.43 67.68 67.30 67.02 66.69 66.37 66.33 66.07 65.99 65.71 65.59 65.47 65.51 65.21 65.29
70.08 69.77 70.00 70.51 71.38 71.28 70.72 69.73 68.98 68.85 67.78 66.58 66.03 65.24 63.55 59.94 60.92 61.57 63.55 66.93 66.90 66.47 66.16 65.95 65.81 65.53 65.36 65.08 65.02 64.92 64.80 64.93 64.69
67.92 68.31 69.51 70.64 70.95 70.90 70.17 69.24 68.53 67.61 66.91 66.66 65.36 63.08 60.02 59.83 60.80 61.72 66.91 66.37 66.43 66.10 65.54 65.35 65.25 65.05 64.58 64.42 64.36 64.24 64.21 64.17 64.09
67.76 66.64 68.47 70.02 69.77 69.79 69.57 68.16 67.12 63.23 61.32 62.91 63.16 59.65 59.44 60.06 60.63 61.81 66.78 65.97 66.01 65.63 65.14 64.64 64.65 64.61 64.11 64.08 63.81 63.66 63.59 63.44 63.22
66.31 65.30 64.99 65.42 65.17 66.04 65.51 63.76 61.41 59.74 59.62 59.91 59.40 58.91 58.80 59.45 60.97 63.79 66.63 66.06 65.89 65.31 64.81 64.50 64.30 64.14 63.65 63.52 63.14 62.99 62.80 62.71 62.45
62.78 63.42 63.01 63.10 62.97 62.98 62.32 61.46 61.14 60.70 59.98 59.30 59.34 58.87 59.08 59.57 60.85 62.56 65.41 66.45 65.96 65.38 64.88 64.23 63.93 63.66 63.18 63.00 62.62 62.24 61.97 61.91 61.63
61.96 62.02 62.02 61.53 60.89 60.26 59.92 60.12 60.57 60.25 60.06 60.16 58.67 58.88 58.95 59.49 60.72 61.03 63.50 65.94 66.20 65.54 64.96 64.51 63.98 63.61 63.02 62.51 62.04 61.62 61.44 60.99 60.76
62.10 61.15 61.14 60.79 60.65 59.97 59.53 59.48 59.38 59.25 58.29 58.17 58.25 58.64 58.93 59.14 59.75 60.30 61.49 64.93 66.26 65.85 65.64 65.12 64.80 64.22 63.43 62.52 61.91 61.23 60.84 60.29 59.77
61.87 61.48 60.25 60.34 60.40 60.36 59.67 59.06 58.50 57.78 56.84 56.12 56.85 57.48 58.35 58.98 59.16 59.73 60.01 62.17 63.92 66.13 66.16 65.94 65.28 64.75 64.39 63.22 62.25 61.30 60.29 59.55 58.97
60.46 60.53 60.30 60.07 59.47 60.06 59.24 58.72 57.66 56.27 55.00 54.24 54.59 55.61 56.25 57.38 58.41 59.00 59.42 60.24 61.70 63.82 66.41 66.80 66.12 65.43 64.98 64.36 63.55 62.43 61.49 60.45 59.41
62.02 60.89 60.80 60.80 59.54 59.42 59.66 58.17 57.29 56.15 55.92 55.39 54.99 54.88 53.88 55.18 57.04 57.61 58.45 58.78 60.25 60.48 62.81 64.35 65.29 66.05 65.85 65.46 65.86 65.37 63.87 62.13 61.00
62.94 62.35 62.08 61.91 60.35 59.08 58.94 58.32 57.77 57.32 57.07 57.78 57.02 55.64 55.16 53.86 54.45 56.10 57.61 58.47 59.13 59.63 60.01 60.73 61.75 63.72 66.16 66.16 66.21 66.25 65.42 64.55 63.06
63.19 62.80 62.28 61.84 61.10 60.51 59.47 58.40 57.53 56.81 56.54 55.73 55.60 56.12 56.24 55.46 55.10 54.79 55.48 56.41 57.96 58.81 58.96 59.00 59.73 61.13 64.18 66.01 66.22 66.23 66.35 65.78 64.83
63.12 62.08 62.18 62.00 61.02 59.82 59.42 58.53 57.39 57.64 56.96 55.34 54.34 52.87 53.46 55.72 56.20 55.68 55.80 55.90 57.13 57.48 58.63 58.53 58.84 58.87 59.18 61.35 63.43 64.32 65.24 65.99 65.87
62.90 62.07 61.97 61.50 61.28 60.26 59.47 59.00 58.37 57.16 57.29 57.12 55.42 50.96 50.32 52.74 55.75 55.81 56.07 56.75 56.67 57.37 57.51 57.93 58.63 58.66 57.50 58.32 59.02 59.69 61.27 63.49 64.95
63.52 62.69 61.27 60.69 60.85 60.30 60.35 60.24 59.31 58.72 57.50 57.47 58.02 56.52 55.89 52.76 52.88 54.95 53.42 53.23 55.07 55.44 54.31 54.68 53.48 54.12 53.87 55.02 55.13 55.66 56.30 59.14 61.73
63.79 63.79 63.50 62.43 61.53 61.56 61.68 61.57 60.89 60.42 59.52 58.51 57.32 56.80 56.31 56.55 54.79 52.42 54.18 52.14 50.64 51.35 51.07 50.06 51.20 51.57 51.39 50.63 50.90 52.74 54.70 57.02 59.03